Whitecourt,

6:49 AM MDT on May 24, 2017 (GMT -0600)
Whitecourt

Weather History for CYZU - November, 2012

Change the Weather History Date:

Tuesday, November 13, 2012

  Actual Average Record
Temperature  
Mean Temperature 28 °F -  
Max Temperature 36 °F 29 °F 53 °F (2001)
Min Temperature 19 °F 16 °F -8 °F (2014)
Degree Days  
Heating Degree Days 38    
Moisture  
Dew Point 26 °F    
Average Humidity 88    
Maximum Humidity 93    
Minimum Humidity 78    
Precipitation  
Precipitation 0.00 in - - ()
Sea Level Pressure  
Sea Level Pressure 29.99 in    
Wind  
Wind Speed 1 mph ()    
Max Wind Speed 6 mph    
Max Gust Speed -    
Visibility 15.0 miles    
Events      
Averages and records for this station are not official NWS values.
T = Trace of Precipitation, MM = Missing Value Source: Averaged Metar Reports

Daily Weather History Graph

Daily Weather History Graph

Search for Another Location

Airport or City:

Trip Planner

Search our weather history database for the weather conditions in past years. The results will help you decide how hot, cold, wet, or windy it might be!

Date:

Astronomy

Nov. 13, 2012 Rise Set
Actual Time 8:08 AM MST 4:45 PM MST
Civil Twilight 7:29 AM MST 5:25 PM MST
Nautical Twilight 6:45 AM MST 6:08 PM MST
Astronomical Twilight 6:04 AM MST 6:50 PM MST
Moon 7:55 AM MST (11/13) 4:36 PM MST (11/13)
Length of Visible Light 9h 55m
Length of Day
8h 36m
Waning Crescent, 0% of the Moon is Illuminated
Nov 13
Waning Crescent
Nov 13
New
Nov 20
First Quarter
Nov 28
Full
Dec 6
Last Quarter

Hourly Weather History & Observations

Time (MST) Temp. Windchill Dew Point Humidity Pressure Visibility Wind Dir Wind Speed Gust Speed Precip Events Conditions
6:00 AM 21.2 °F - 19.4 °F 93% 30.04 in 15.0 mi Calm Calm - N/A   Overcast
7:00 AM 23.0 °F - 21.2 °F 93% 30.04 in 15.0 mi Calm Calm - N/A   Overcast
8:00 AM 24.8 °F - 23.0 °F 93% 30.05 in 15.0 mi WNW 2.3 mph - N/A   Overcast
9:00 AM 21.2 °F - 19.4 °F 93% 30.04 in 15.0 mi Calm Calm - N/A   Mostly Cloudy
10:00 AM 24.8 °F - 23.0 °F 93% 30.04 in 15.0 mi WNW 2.3 mph - N/A   Overcast
11:00 AM 24 °F - 22 °F 90% 30.04 in 15 mi Calm Calm - -   Partly Cloudy
11:00 AM 24.8 °F - 23.0 °F 93% 30.04 in 15.0 mi Calm Calm - N/A   Mostly Cloudy
12:00 PM 28.4 °F - 24.8 °F 86% 30.04 in 15.0 mi SW 2.3 mph - N/A   Mostly Cloudy
1:00 PM 32.0 °F - 26.6 °F 80% 30.02 in 15.0 mi Calm Calm - N/A   Mostly Cloudy
2:00 PM 33.8 °F - 28.4 °F 81% 29.99 in 15.0 mi Calm Calm - N/A   Mostly Cloudy
3:00 PM 33.8 °F - 28.4 °F 81% 29.97 in 15.0 mi Calm Calm - N/A   Mostly Cloudy
4:00 PM 30.2 °F - 28.4 °F 93% 29.96 in 15.0 mi Calm Calm - N/A   Mostly Cloudy
5:00 PM 33 °F - 29 °F 78% 29.95 in 15 mi SSW 4.6 mph - -   Overcast
5:00 PM 32.0 °F 26.4 °F 28.4 °F 87% 29.95 in 15.0 mi SSW 5.8 mph - N/A   Overcast
6:00 PM 32.0 °F - 28.4 °F 87% 29.94 in 15.0 mi Calm Calm - N/A   Overcast
7:00 PM 32.0 °F 26.4 °F 28.4 °F 87% 29.93 in 15.0 mi SSW 5.8 mph - N/A   Mostly Cloudy
8:00 PM 32.0 °F - 28.4 °F 87% 29.92 in 15.0 mi Calm Calm - N/A   Overcast
9:00 PM 30.2 °F - 28.4 °F 93% 29.91 in 15.0 mi Calm Calm - N/A   Overcast
10:00 PM 30.2 °F 24.3 °F 26.6 °F 86% 29.90 in 15.0 mi SW 5.8 mph - N/A   Mostly Cloudy